QPF
0.05 0.06 0.06 0.06 0.05 0.04 0.05 0.08 0.09 0.11 0.12 0.11 0.09 0.08 0.09 0.08 0.06 0.05 0.05 0.05 0.02 0.01 0.02 0.02 0.02 0.03 0.02 0.02 0.03 0.04 0.05 0.05 0.06 0.07 0.07 0.07 0.07 0.07
0.07 0.07 0.06 0.07 0.06 0.04 0.04 0.06 0.08 0.09 0.10 0.09 0.08 0.06 0.05 0.05 0.07 0.05 0.07 0.07 0.04 0.02 0.02 0.01 0.02 0.03 0.02 0.02 0.02 0.02 0.02 0.02 0.03 0.03 0.05 0.06 0.07 0.07
0.04 0.06 0.06 0.06 0.06 0.06 0.05 0.06 0.08 0.08 0.07 0.07 0.08 0.08 0.07 0.07 0.06 0.06 0.06 0.06 0.06 0.04 0.02 0.02 0.02 0.03 0.03 0.02 0.02 0.02 0.02 0.01 0.02 0.03 0.04 0.04 0.05 0.05
0.03 0.03 0.03 0.03 0.03 0.04 0.06 0.06 0.07 0.07 0.07 0.07 0.08 0.08 0.07 0.07 0.07 0.07 0.06 0.06 0.06 0.05 0.03 0.02 0.02 0.02 0.03 0.03 0.02 0.02 0.02 0.02 0.03 0.03 0.03 0.04 0.04 0.05
0.03 0.02 0.02 0.03 0.03 0.03 0.04 0.05 0.05 0.05 0.05 0.05 0.05 0.08 0.07 0.06 0.06 0.06 0.06 0.05 0.06 0.05 0.03 0.02 0.02 0.02 0.02 0.02 0.02 0.02 0.02 0.02 0.02 0.02 0.03 0.03 0.04 0.06
0.04 0.03 0.02 0.03 0.03 0.02 0.02 0.03 0.04 0.04 0.05 0.04 0.03 0.04 0.05 0.06 0.06 0.07 0.07 0.06 0.06 0.05 0.03 0.02 0.02 0.02 0.02 0.01 0.01 0.01 0.01 0.01 0.01 0.01 0.01 0.02 0.02 0.03
0.03 0.03 0.02 0.02 0.02 0.01 0.01 0.03 0.04 0.04 0.04 0.04 0.03 0.03 0.03 0.04 0.05 0.06 0.07 0.09 0.08 0.06 0.05 0.03 0.02 0.02 0.02 0.01 0.01 0.00 0.01 0.01 0.01 0.01 0.01 0.01 0.02 0.02
0.03 0.03 0.02 0.01 0.01 0.01 0.01 0.02 0.03 0.03 0.03 0.03 0.03 0.03 0.03 0.04 0.05 0.06 0.06 0.08 0.07 0.06 0.05 0.03 0.03 0.03 0.03 0.02 0.01 0.01 0.00 0.00 0.01 0.01 0.01 0.01 0.01 0.02
0.03 0.03 0.03 0.01 0.01 0.01 0.01 0.01 0.01 0.02 0.03 0.03 0.03 0.03 0.04 0.04 0.04 0.04 0.05 0.05 0.07 0.07 0.07 0.05 0.04 0.03 0.03 0.02 0.02 0.01 0.01 0.01 0.01 0.01 0.01 0.01 0.01 0.01
0.03 0.03 0.03 0.03 0.02 0.01 0.02 0.02 0.01 0.01 0.01 0.02 0.03 0.04 0.03 0.03 0.03 0.03 0.03 0.04 0.05 0.07 0.06 0.05 0.04 0.03 0.02 0.02 0.02 0.02 0.01 0.01 0.01 0.01 0.01 0.01 0.01 0.01
0.02 0.02 0.02 0.04 0.04 0.02 0.03 0.03 0.02 0.02 0.01 0.01 0.02 0.03 0.03 0.03 0.02 0.02 0.03 0.04 0.04 0.04 0.06 0.04 0.03 0.03 0.03 0.02 0.02 0.02 0.02 0.01 0.02 0.02 0.02 0.02 0.02 0.02
0.02 0.02 0.01 0.02 0.02 0.02 0.03 0.05 0.04 0.05 0.03 0.02 0.02 0.03 0.04 0.04 0.03 0.02 0.03 0.04 0.04 0.04 0.04 0.05 0.05 0.06 0.04 0.03 0.02 0.03 0.03 0.02 0.01 0.02 0.03 0.04 0.03 0.03
0.01 0.02 0.02 0.01 0.00 0.00 0.01 0.04 0.04 0.04 0.04 0.03 0.03 0.04 0.05 0.04 0.03 0.03 0.03 0.03 0.04 0.04 0.03 0.04 0.05 0.07 0.07 0.05 0.04 0.04 0.03 0.03 0.02 0.02 0.02 0.03 0.05 0.05
0.00 0.01 0.01 0.00 0.00 0.00 0.00 0.01 0.02 0.03 0.05 0.04 0.04 0.03 0.04 0.04 0.04 0.04 0.04 0.04 0.04 0.03 0.04 0.05 0.05 0.06 0.06 0.05 0.05 0.05 0.05 0.06 0.05 0.03 0.02 0.02 0.03 0.04
0.00 0.00 0.00 0.00 0.00 0.00 0.00 0.00 0.00 0.02 0.03 0.03 0.03 0.03 0.03 0.04 0.03 0.03 0.04 0.04 0.04 0.03 0.04 0.05 0.06 0.06 0.06 0.06 0.06 0.07 0.07 0.06 0.05 0.04 0.03 0.02 0.02 0.02
0.01 0.00 0.00 0.00 0.01 0.01 0.00 0.01 0.01 0.02 0.03 0.03 0.03 0.03 0.02 0.03 0.03 0.03 0.03 0.03 0.03 0.02 0.03 0.04 0.05 0.06 0.06 0.05 0.05 0.06 0.07 0.07 0.05 0.05 0.04 0.03 0.02 0.02
0.00 0.01 0.01 0.01 0.01 0.01 0.01 0.01 0.01 0.02 0.02 0.03 0.03 0.03 0.02 0.02 0.02 0.03 0.04 0.03 0.03 0.02 0.02 0.04 0.05 0.06 0.06 0.05 0.04 0.04 0.05 0.04 0.04 0.04 0.04 0.03 0.03 0.02
0.00 0.01 0.01 0.01 0.01 0.01 0.01 0.01 0.00 0.00 0.01 0.01 0.01 0.02 0.02 0.01 0.01 0.02 0.03 0.03 0.03 0.03 0.03 0.04 0.05 0.05 0.05 0.05 0.05 0.04 0.04 0.04 0.04 0.04 0.04 0.03 0.02 0.02
0.00 0.00 0.00 0.00 0.00 0.00 0.01 0.00 0.00 0.00 0.00 0.01 0.02 0.02 0.02 0.02 0.01 0.01 0.02 0.02 0.02 0.03 0.03 0.04 0.05 0.06 0.05 0.04 0.03 0.04 0.04 0.04 0.05 0.05 0.04 0.04 0.02 0.02
0.00 0.00 0.00 0.00 0.00 0.00 0.00 0.01 0.01 0.01 0.01 0.01 0.01 0.02 0.03 0.02 0.02 0.02 0.02 0.02 0.02 0.02 0.02 0.03 0.05 0.05 0.05 0.04 0.04 0.03 0.03 0.03 0.04 0.04 0.04 0.04 0.04 0.03
0.00 0.00 0.00 0.00 0.01 0.00 0.01 0.01 0.01 0.01 0.01 0.01 0.01 0.01 0.01 0.01 0.01 0.01 0.01 0.01 0.01 0.01 0.02 0.02 0.03 0.04 0.03 0.04 0.04 0.03 0.03 0.03 0.03 0.04 0.04 0.04 0.04 0.03
0.00 0.00 0.00 0.00 0.00 0.00 0.01 0.00 0.00 0.00 0.00 0.00 0.00 0.00 0.01 0.01 0.01 0.01 0.01 0.01 0.01 0.01 0.01 0.01 0.02 0.02 0.03 0.03 0.03 0.03 0.03 0.04 0.04 0.03 0.03 0.03 0.03 0.03
0.00 0.00 0.00 0.00 0.00 0.00 0.00 0.01 0.00 0.00 0.00 0.00 0.00 0.00 0.01 0.01 0.01 0.01 0.01 0.01 0.01 0.01 0.01 0.01 0.01 0.01 0.02 0.02 0.03 0.03 0.03 0.03 0.04 0.03 0.03 0.02 0.02 0.02
MSLP
1011.90 1011.96 1012.07 1012.21 1012.35 1012.45 1012.49 1012.46 1012.35 1012.17 1011.93 1011.66 1011.38 1011.13 1010.92 1010.76 1010.66 1010.62 1010.64 1010.72 1010.84 1011.02 1011.23 1011.48 1011.77 1012.08 1012.42 1012.77 1013.12 1013.47 1013.80 1014.12 1014.41 1014.68 1014.95 1015.20 1015.45 1015.72
1012.10 1012.12 1012.19 1012.28 1012.39 1012.49 1012.55 1012.56 1012.50 1012.38 1012.21 1011.98 1011.73 1011.47 1011.23 1011.01 1010.83 1010.70 1010.62 1010.60 1010.63 1010.73 1010.87 1011.06 1011.29 1011.56 1011.85 1012.16 1012.48 1012.80 1013.12 1013.43 1013.73 1014.03 1014.32 1014.60 1014.88 1015.16
1012.23 1012.21 1012.24 1012.30 1012.39 1012.49 1012.58 1012.63 1012.64 1012.59 1012.48 1012.31 1012.10 1011.85 1011.59 1011.33 1011.09 1010.88 1010.72 1010.61 1010.55 1010.55 1010.61 1010.72 1010.87 1011.07 1011.29 1011.53 1011.80 1012.08 1012.37 1012.68 1012.99 1013.31 1013.63 1013.94 1014.25 1014.55
1012.28 1012.24 1012.23 1012.28 1012.36 1012.47 1012.59 1012.70 1012.77 1012.79 1012.74 1012.63 1012.46 1012.23 1011.97 1011.69 1011.40 1011.14 1010.90 1010.71 1010.57 1010.49 1010.46 1010.47 1010.53 1010.62 1010.75 1010.91 1011.10 1011.33 1011.58 1011.87 1012.19 1012.53 1012.88 1013.23 1013.57 1013.88
1012.27 1012.22 1012.20 1012.24 1012.33 1012.46 1012.61 1012.76 1012.88 1012.95 1012.96 1012.89 1012.76 1012.55 1012.29 1012.00 1011.69 1011.38 1011.10 1010.85 1010.64 1010.48 1010.36 1010.27 1010.23 1010.21 1010.24 1010.30 1010.40 1010.56 1010.76 1011.03 1011.34 1011.69 1012.07 1012.45 1012.81 1013.15
1012.23 1012.18 1012.16 1012.21 1012.31 1012.45 1012.62 1012.79 1012.94 1013.04 1013.08 1013.04 1012.92 1012.73 1012.47 1012.18 1011.86 1011.54 1011.23 1010.94 1010.68 1010.45 1010.26 1010.08 1009.94 1009.82 1009.73 1009.69 1009.70 1009.78 1009.93 1010.15 1010.45 1010.80 1011.19 1011.59 1011.98 1012.34
1012.18 1012.13 1012.13 1012.18 1012.28 1012.43 1012.60 1012.77 1012.92 1013.02 1013.06 1013.02 1012.90 1012.71 1012.46 1012.16 1011.85 1011.52 1011.21 1010.90 1010.62 1010.35 1010.09 1009.85 1009.62 1009.41 1009.22 1009.08 1009.00 1009.00 1009.09 1009.27 1009.53 1009.87 1010.26 1010.67 1011.07 1011.43
1012.11 1012.08 1012.09 1012.15 1012.25 1012.39 1012.54 1012.69 1012.80 1012.87 1012.87 1012.81 1012.67 1012.46 1012.21 1011.93 1011.62 1011.31 1011.00 1010.70 1010.41 1010.12 1009.83 1009.54 1009.24 1008.96 1008.69 1008.47 1008.31 1008.24 1008.26 1008.38 1008.61 1008.92 1009.28 1009.68 1010.08 1010.45
1012.01 1012.00 1012.03 1012.10 1012.19 1012.30 1012.42 1012.52 1012.58 1012.59 1012.54 1012.42 1012.25 1012.03 1011.77 1011.49 1011.20 1010.91 1010.62 1010.34 1010.06 1009.77 1009.47 1009.15 1008.81 1008.48 1008.15 1007.87 1007.65 1007.51 1007.47 1007.53 1007.71 1007.97 1008.31 1008.68 1009.06 1009.43
1011.84 1011.87 1011.92 1011.99 1012.08 1012.16 1012.23 1012.27 1012.26 1012.21 1012.09 1011.93 1011.72 1011.47 1011.20 1010.93 1010.66 1010.39 1010.14 1009.88 1009.62 1009.34 1009.04 1008.71 1008.36 1007.99 1007.64 1007.31 1007.04 1006.85 1006.75 1006.76 1006.88 1007.09 1007.38 1007.71 1008.07 1008.41
1011.60 1011.66 1011.74 1011.82 1011.90 1011.96 1011.98 1011.97 1011.90 1011.78 1011.61 1011.40 1011.15 1010.89 1010.62 1010.36 1010.11 1009.87 1009.64 1009.41 1009.17 1008.91 1008.61 1008.29 1007.93 1007.55 1007.17 1006.82 1006.52 1006.29 1006.15 1006.11 1006.17 1006.33 1006.56 1006.84 1007.16 1007.48
1011.26 1011.36 1011.47 1011.58 1011.66 1011.70 1011.70 1011.65 1011.54 1011.37 1011.17 1010.92 1010.66 1010.39 1010.13 1009.88 1009.65 1009.43 1009.23 1009.02 1008.79 1008.54 1008.25 1007.92 1007.57 1007.19 1006.80 1006.44 1006.12 1005.86 1005.69 1005.60 1005.61 1005.71 1005.88 1006.12 1006.39 1006.68
1010.85 1011.00 1011.15 1011.28 1011.37 1011.42 1011.41 1011.34 1011.21 1011.03 1010.81 1010.57 1010.31 1010.05 1009.80 1009.57 1009.36 1009.16 1008.96 1008.76 1008.54 1008.28 1007.99 1007.67 1007.31 1006.93 1006.54 1006.17 1005.84 1005.57 1005.37 1005.25 1005.22 1005.26 1005.39 1005.57 1005.79 1006.04
1010.42 1010.61 1010.80 1010.96 1011.08 1011.15 1011.15 1011.09 1010.97 1010.80 1010.59 1010.36 1010.12 1009.88 1009.66 1009.45 1009.25 1009.06 1008.87 1008.66 1008.43 1008.16 1007.86 1007.53 1007.16 1006.78 1006.39 1006.03 1005.69 1005.41 1005.19 1005.05 1004.98 1004.99 1005.06 1005.19 1005.37 1005.58
1010.03 1010.26 1010.48 1010.67 1010.82 1010.91 1010.94 1010.91 1010.82 1010.68 1010.51 1010.31 1010.10 1009.90 1009.70 1009.51 1009.32 1009.13 1008.93 1008.71 1008.46 1008.17 1007.85 1007.50 1007.12 1006.74 1006.35 1005.99 1005.65 1005.37 1005.14 1004.98 1004.88 1004.85 1004.88 1004.96 1005.10 1005.26
1009.73 1009.98 1010.23 1010.45 1010.63 1010.76 1010.82 1010.83 1010.78 1010.68 1010.55 1010.39 1010.23 1010.05 1009.88 1009.71 1009.52 1009.33 1009.11 1008.87 1008.59 1008.28 1007.94 1007.58 1007.19 1006.80 1006.41 1006.05 1005.72 1005.43 1005.19 1005.01 1004.88 1004.82 1004.81 1004.85 1004.93 1005.05
1009.57 1009.84 1010.10 1010.34 1010.54 1010.70 1010.80 1010.85 1010.84 1010.79 1010.70 1010.59 1010.46 1010.31 1010.16 1009.99 1009.81 1009.61 1009.38 1009.12 1008.82 1008.49 1008.13 1007.75 1007.36 1006.96 1006.58 1006.21 1005.88 1005.58 1005.33 1005.13 1004.98 1004.87 1004.82 1004.81 1004.84 1004.90
1009.56 1009.82 1010.09 1010.35 1010.57 1010.75 1010.89 1010.97 1011.00 1010.99 1010.94 1010.86 1010.76 1010.64 1010.50 1010.34 1010.15 1009.94 1009.70 1009.42 1009.12 1008.78 1008.41 1008.03 1007.64 1007.24 1006.86 1006.49 1006.15 1005.84 1005.57 1005.34 1005.15 1005.00 1004.89 1004.82 1004.78 1004.77
1009.65 1009.91 1010.18 1010.45 1010.69 1010.90 1011.06 1011.18 1011.25 1011.27 1011.26 1011.21 1011.12 1011.02 1010.88 1010.72 1010.54 1010.32 1010.07 1009.80 1009.49 1009.16 1008.80 1008.43 1008.05 1007.66 1007.28 1006.91 1006.56 1006.22 1005.92 1005.65 1005.40 1005.20 1005.02 1004.88 1004.77 1004.68
1009.78 1010.06 1010.34 1010.62 1010.88 1011.11 1011.31 1011.46 1011.56 1011.62 1011.63 1011.60 1011.53 1011.43 1011.30 1011.15 1010.96 1010.75 1010.52 1010.25 1009.96 1009.65 1009.31 1008.96 1008.60 1008.22 1007.84 1007.47 1007.10 1006.74 1006.39 1006.06 1005.76 1005.48 1005.23 1005.01 1004.81 1004.64
1009.90 1010.19 1010.50 1010.80 1011.09 1011.36 1011.60 1011.78 1011.92 1012.01 1012.05 1012.04 1011.98 1011.89 1011.77 1011.62 1011.44 1011.24 1011.02 1010.78 1010.52 1010.24 1009.94 1009.62 1009.28 1008.92 1008.55 1008.16 1007.77 1007.38 1006.98 1006.60 1006.23 1005.87 1005.54 1005.24 1004.95 1004.69
1009.95 1010.28 1010.62 1010.96 1011.30 1011.61 1011.89 1012.12 1012.30 1012.42 1012.49 1012.50 1012.46 1012.38 1012.26 1012.12 1011.96 1011.78 1011.58 1011.37 1011.15 1010.91 1010.65 1010.37 1010.05 1009.72 1009.35 1008.96 1008.55 1008.11 1007.67 1007.23 1006.79 1006.37 1005.96 1005.58 1005.22 1004.88
1009.92 1010.30 1010.69 1011.08 1011.47 1011.83 1012.16 1012.44 1012.66 1012.82 1012.92 1012.95 1012.93 1012.86 1012.75 1012.63 1012.48 1012.32 1012.16 1011.98 1011.80 1011.60 1011.38 1011.14 1010.86 1010.54 1010.18 1009.78 1009.35 1008.89 1008.41 1007.92 1007.43 1006.95 1006.49 1006.04 1005.62 1005.22
Thickness
5673 5674 5674 5676 5678 5680 5681 5681 5678 5675 5679 5688 5692 5698 5702 5704 5706 5707 5709 5711 5712 5713 5715 5716 5717 5718 5719 5720 5721 5722 5722 5722 5722 5722 5722 5721 5720 5720
5673 5673 5673 5675 5676 5677 5679 5680 5680 5677 5675 5682 5687 5692 5696 5699 5700 5702 5703 5705 5707 5708 5709 5711 5712 5713 5714 5715 5716 5717 5717 5718 5718 5718 5718 5717 5717 5716
5672 5672 5673 5674 5673 5674 5676 5677 5677 5677 5674 5677 5683 5687 5688 5691 5693 5695 5698 5699 5701 5703 5705 5706 5707 5709 5710 5711 5712 5712 5712 5713 5713 5713 5713 5713 5712 5712
5671 5671 5671 5672 5671 5672 5673 5674 5675 5676 5674 5672 5675 5679 5681 5684 5687 5689 5692 5694 5696 5698 5700 5701 5703 5704 5706 5706 5707 5707 5708 5708 5708 5708 5708 5708 5708 5707
5671 5670 5670 5670 5669 5670 5671 5672 5673 5674 5673 5671 5671 5674 5676 5679 5681 5683 5686 5688 5691 5693 5695 5696 5698 5699 5701 5702 5702 5702 5703 5703 5703 5703 5703 5703 5703 5703
5671 5670 5670 5669 5668 5668 5669 5669 5670 5669 5669 5668 5668 5669 5670 5674 5675 5675 5677 5682 5685 5688 5690 5691 5693 5694 5696 5697 5697 5698 5698 5698 5698 5698 5698 5697 5697 5697
5670 5669 5669 5668 5668 5667 5666 5665 5666 5665 5664 5664 5664 5664 5665 5666 5668 5671 5671 5674 5678 5682 5683 5686 5687 5689 5690 5691 5692 5692 5693 5693 5693 5693 5693 5692 5692 5692
5668 5668 5668 5667 5666 5666 5666 5665 5664 5662 5661 5660 5660 5660 5661 5663 5665 5666 5666 5667 5668 5677 5677 5678 5682 5683 5685 5686 5687 5688 5688 5688 5688 5688 5687 5687 5687 5687
5668 5667 5667 5667 5664 5663 5663 5663 5663 5662 5661 5659 5658 5658 5659 5661 5662 5662 5662 5663 5665 5670 5671 5671 5675 5677 5680 5682 5683 5683 5683 5683 5683 5682 5682 5682 5681 5681
5668 5667 5665 5663 5663 5661 5661 5660 5659 5660 5660 5659 5658 5658 5659 5659 5660 5660 5660 5661 5664 5667 5668 5665 5669 5672 5676 5677 5678 5678 5678 5678 5677 5677 5677 5676 5676 5676
5667 5665 5664 5661 5661 5660 5658 5656 5656 5656 5658 5658 5658 5658 5658 5658 5658 5656 5655 5655 5655 5659 5663 5662 5664 5665 5668 5670 5672 5672 5671 5671 5671 5671 5671 5671 5671 5670
5664 5662 5661 5659 5658 5656 5654 5652 5650 5651 5653 5654 5654 5655 5655 5655 5656 5654 5653 5651 5650 5652 5658 5657 5657 5657 5657 5662 5664 5664 5664 5664 5664 5665 5665 5665 5664 5662
5660 5658 5656 5655 5654 5652 5651 5648 5647 5648 5648 5648 5649 5650 5651 5651 5651 5651 5651 5649 5647 5647 5652 5652 5651 5650 5650 5652 5655 5657 5657 5658 5658 5658 5658 5658 5657 5655
5655 5654 5652 5651 5650 5648 5647 5646 5646 5645 5644 5643 5643 5643 5644 5644 5646 5647 5647 5647 5647 5646 5647 5647 5645 5644 5643 5643 5645 5648 5650 5650 5651 5651 5651 5651 5650 5649
5651 5650 5649 5647 5646 5644 5643 5642 5641 5639 5638 5637 5637 5637 5639 5640 5641 5640 5640 5641 5641 5641 5642 5641 5640 5639 5637 5636 5637 5639 5640 5642 5643 5643 5643 5643 5643 5642
5646 5645 5644 5643 5641 5638 5637 5636 5635 5633 5632 5631 5631 5631 5632 5632 5632 5632 5631 5631 5630 5631 5633 5634 5634 5632 5631 5631 5630 5631 5632 5632 5634 5634 5634 5634 5635 5635
5642 5640 5638 5635 5633 5631 5630 5629 5628 5627 5625 5624 5624 5623 5623 5623 5623 5623 5622 5622 5621 5620 5621 5624 5625 5625 5625 5624 5623 5623 5623 5623 5624 5624 5625 5625 5626 5626
5636 5632 5630 5627 5624 5622 5620 5619 5618 5617 5616 5615 5615 5614 5613 5613 5612 5613 5612 5611 5610 5610 5611 5612 5613 5614 5614 5615 5616 5615 5614 5614 5614 5615 5614 5614 5616 5617
5627 5624 5621 5619 5616 5613 5611 5609 5608 5607 5606 5605 5604 5603 5602 5602 5601 5601 5600 5599 5599 5599 5599 5600 5599 5598 5598 5600 5604 5604 5603 5604 5604 5604 5604 5604 5605 5608
5619 5615 5612 5609 5606 5604 5602 5600 5598 5597 5596 5594 5593 5591 5590 5589 5588 5587 5587 5586 5586 5586 5586 5586 5585 5584 5584 5586 5590 5592 5592 5591 5591 5592 5593 5594 5596 5598
5609 5606 5603 5600 5597 5594 5592 5590 5588 5586 5584 5582 5581 5579 5578 5576 5575 5574 5574 5574 5573 5572 5572 5572 5572 5573 5574 5575 5576 5579 5580 5580 5580 5579 5580 5581 5583 5584
5600 5596 5593 5590 5587 5584 5581 5579 5577 5574 5572 5570 5568 5567 5566 5564 5563 5562 5561 5560 5559 5558 5558 5559 5560 5560 5560 5560 5561 5564 5567 5569 5569 5568 5567 5567 5567 5569
5589 5586 5582 5579 5576 5573 5570 5568 5566 5563 5560 5558 5556 5554 5553 5551 5550 5549 5548 5547 5546 5545 5545 5544 5545 5545 5545 5545 5546 5548 5551 5553 5554 5556 5556 5555 5555 5556